Steamboat Springs, CO

10:53 AM MDT on August 27, 2016 (GMT -0600)
Steamboat Springs-Adams

Weather History for KSBS - September, 2013

Change the Weather History Date:

Thursday, September 19, 2013

  Actual Average Record
Temperature  
Mean Temperature 50 °F -  
Max Temperature 62 °F 69 °F 86 °F (1935)
Min Temperature 38 °F 32 °F 12 °F (1971)
Degree Days  
Heating Degree Days 15    
Moisture  
Dew Point 28 °F    
Average Humidity 48    
Maximum Humidity 82    
Minimum Humidity 14    
Precipitation  
Precipitation 0.00 in - - ()
Sea Level Pressure  
Sea Level Pressure 30.20 in    
Wind  
Wind Speed 2 mph (SW)    
Max Wind Speed 10 mph    
Max Gust Speed 16 mph    
Visibility 10 miles    
Events      
Averages and records for this station are not official NWS values.
T = Trace of Precipitation, MM = Missing Value Source: NWS Daily Summary

Daily Weather History Graph

Daily Weather History Graph

Search for Another Location

Airport or City:

Trip Planner

Search our weather history database for the weather conditions in past years. The results will help you decide how hot, cold, wet, or windy it might be!

Date:

Astronomy

Sep. 19, 2013 Rise Set
Actual Time 6:52 AM MDT 7:09 PM MDT
Civil Twilight 6:25 AM MDT 7:36 PM MDT
Nautical Twilight 5:53 AM MDT 8:08 PM MDT
Astronomical Twilight 5:20 AM MDT 8:40 PM MDT
Moon 7:08 PM MDT (9/19) 7:04 AM MDT (9/19)
Length of Visible Light 13h 11m
Length of Day
12h 16m
Full, 100% of the Moon is Illuminated
Sep 19
Full
Sep 26
Last Quarter
Oct 4
New
Oct 11
First Quarter
Oct 18
Full

Hourly Weather History & Observations

Time (MDT) Temp. Windchill Dew Point Humidity Pressure Visibility Wind Dir Wind Speed Gust Speed Precip Events Conditions
12:14 AM 51.4 °F - 41.0 °F 68% 30.10 in 10.0 mi Calm Calm - N/A   Scattered Clouds
12:34 AM 50.2 °F - 41.2 °F 71% 30.11 in 10.0 mi Calm Calm - N/A   Mostly Cloudy
12:54 AM 48.6 °F - 41.9 °F 78% 30.10 in 10.0 mi East 4.6 mph - N/A   Overcast
1:14 AM 50.0 °F - 41.0 °F 71% 30.11 in 10.0 mi East 4.6 mph - N/A   Mostly Cloudy
1:34 AM 50.2 °F - 40.8 °F 70% 30.12 in 10.0 mi East 4.6 mph - N/A   Mostly Cloudy
1:54 AM 47.5 °F - 40.6 °F 77% 30.13 in 10.0 mi Calm Calm - N/A   Scattered Clouds
2:14 AM 48.4 °F - 40.8 °F 75% 30.14 in 10.0 mi Calm Calm - N/A   Mostly Cloudy
2:34 AM 48.2 °F - 41.4 °F 77% 30.15 in 10.0 mi Calm Calm - N/A   Overcast
2:54 AM 47.7 °F - 41.2 °F 78% 30.15 in 10.0 mi Calm Calm - N/A   Overcast
3:14 AM 48.4 °F - 40.6 °F 75% 30.15 in 10.0 mi East 3.5 mph - N/A   Mostly Cloudy
3:34 AM 47.7 °F - 39.0 °F 72% 30.14 in 10.0 mi East 5.8 mph - N/A   Scattered Clouds
3:54 AM 47.3 °F - 36.1 °F 65% 30.15 in 10.0 mi SE 3.5 mph - N/A   Scattered Clouds
4:14 AM 47.3 °F - 36.7 °F 67% 30.15 in 10.0 mi Calm Calm - N/A   Mostly Cloudy
4:34 AM 46.2 °F - 34.2 °F 63% 30.14 in 10.0 mi Calm Calm - N/A   Scattered Clouds
4:54 AM 45.1 °F 42.8 °F 33.3 °F 63% 30.15 in 10.0 mi SE 4.6 mph - N/A   Clear
5:14 AM 44.1 °F 41.5 °F 34.5 °F 69% 30.15 in 10.0 mi SE 4.6 mph - N/A   Scattered Clouds
5:34 AM 42.3 °F 39.4 °F 34.5 °F 74% 30.16 in 10.0 mi ESE 4.6 mph - N/A   Scattered Clouds
5:54 AM 41.4 °F - 32.5 °F 71% 30.16 in 10.0 mi Calm Calm - N/A   Scattered Clouds
6:14 AM 41.7 °F - 34.2 °F 75% 30.18 in 10.0 mi Calm Calm - N/A   Clear
6:34 AM 39.7 °F 35.6 °F 34.3 °F 81% 30.18 in 10.0 mi ESE 5.8 mph - N/A   Clear
6:54 AM 39.4 °F 37.2 °F 33.8 °F 80% 30.19 in 10.0 mi SE 3.5 mph - N/A   Clear
7:14 AM 38.8 °F 35.4 °F 33.8 °F 82% 30.19 in 10.0 mi SE 4.6 mph - N/A   Clear
7:34 AM 39.4 °F - 34.0 °F 81% 30.20 in 10.0 mi Calm Calm - N/A   Clear
7:54 AM 40.3 °F - 34.0 °F 78% 30.21 in 10.0 mi Calm Calm - N/A   Clear
8:14 AM 41.9 °F - 33.6 °F 72% 30.21 in 10.0 mi Calm Calm - N/A   Clear
8:34 AM 43.3 °F - 34.5 °F 71% 30.22 in 10.0 mi Calm Calm - N/A   Clear
8:54 AM 45.5 °F - 33.8 °F 64% 30.23 in 10.0 mi Calm Calm - N/A   Clear
9:14 AM 46.4 °F - 31.6 °F 56% 30.23 in 10.0 mi Calm Calm - N/A   Clear
9:34 AM 48.0 °F - 29.5 °F 49% 30.24 in 10.0 mi Calm Calm - N/A   Clear
9:54 AM 48.9 °F - 29.1 °F 46% 30.24 in 10.0 mi Calm Calm - N/A   Clear
10:14 AM 50.2 °F - 30.0 °F 46% 30.24 in 10.0 mi Calm Calm - N/A   Clear
10:34 AM 50.9 °F - 29.3 °F 43% 30.24 in 10.0 mi Calm Calm - N/A   Clear
10:54 AM 52.2 °F - 28.0 °F 39% 30.24 in 10.0 mi SW 3.5 mph - N/A   Clear
11:14 AM 54.0 °F - 21.2 °F 28% 30.23 in 10.0 mi West 3.5 mph - N/A   Clear
11:34 AM 54.5 °F - 21.0 °F 27% 30.23 in 10.0 mi NW 3.5 mph - N/A   Clear
11:54 AM 55.4 °F - 23.2 °F 29% 30.23 in 10.0 mi WSW 4.6 mph - N/A   Clear
12:14 PM 56.3 °F - 22.6 °F 27% 30.23 in 10.0 mi Calm Calm - N/A   Clear
12:34 PM 57.2 °F - 24.6 °F 29% 30.23 in 10.0 mi West 6.9 mph - N/A   Clear
12:54 PM 58.1 °F - 24.1 °F 27% 30.23 in 10.0 mi SSW 6.9 mph - N/A   Clear
1:14 PM 58.1 °F - 24.8 °F 28% 30.23 in 10.0 mi SW 3.5 mph - N/A   Clear
1:34 PM 59.0 °F - 21.0 °F 23% 30.22 in 10.0 mi WSW 5.8 mph - N/A   Clear
1:54 PM 59.7 °F - 19.6 °F 21% 30.21 in 10.0 mi WSW 4.6 mph - N/A   Clear
2:14 PM 60.4 °F - 17.2 °F 19% 30.21 in 10.0 mi SW 5.8 mph - N/A   Clear
2:34 PM 61.0 °F - 16.2 °F 18% 30.20 in 10.0 mi SSW 3.5 mph - N/A   Clear
2:54 PM 61.0 °F - 13.1 °F 15% 30.20 in 10.0 mi SSW 9.2 mph 16.1 mph N/A   Clear
3:14 PM 62.2 °F - 15.8 °F 16% 30.20 in 10.0 mi West 8.1 mph - N/A   Clear
3:34 PM 62.1 °F - 12.2 °F 14% 30.20 in 10.0 mi WSW 6.9 mph - N/A   Clear
3:54 PM 62.6 °F - 14.7 °F 16% 30.20 in 10.0 mi WSW 8.1 mph - N/A   Clear
4:14 PM 62.2 °F - 14.9 °F 16% 30.20 in 10.0 mi West 10.4 mph - N/A   Clear
4:34 PM 62.2 °F - 13.1 °F 15% 30.20 in 10.0 mi West 5.8 mph - N/A   Clear
4:54 PM 62.2 °F - 14.2 °F 15% 30.20 in 10.0 mi West 6.9 mph - N/A   Clear
5:14 PM 62.2 °F - 13.6 °F 15% 30.20 in 10.0 mi West 6.9 mph - N/A   Clear
5:34 PM 61.9 °F - 14.9 °F 16% 30.20 in 10.0 mi WNW 4.6 mph - N/A   Clear
5:54 PM 61.0 °F - 17.6 °F 19% 30.20 in 10.0 mi WNW 5.8 mph - N/A   Clear
6:14 PM 60.4 °F - 18.9 °F 20% 30.20 in 10.0 mi West 4.6 mph - N/A   Clear
6:34 PM 59.0 °F - 19.0 °F 21% 30.21 in 10.0 mi West 5.8 mph - N/A   Clear
6:54 PM 57.0 °F - 21.0 °F 25% 30.21 in 10.0 mi WNW 3.5 mph - N/A   Clear
7:14 PM 54.7 °F - 24.6 °F 31% 30.21 in 10.0 mi NNW 3.5 mph - N/A   Clear
7:34 PM 54.0 °F - 23.0 °F 30% 30.22 in 10.0 mi Calm Calm - N/A   Clear
7:54 PM 50.4 °F - 25.0 °F 37% 30.23 in 10.0 mi Calm Calm - N/A   Clear
8:14 PM 50.2 °F - 28.0 °F 42% 30.23 in 10.0 mi Calm Calm - N/A   Clear
8:34 PM 48.2 °F - 28.6 °F 47% 30.24 in 10.0 mi Calm Calm - N/A   Clear
8:54 PM 47.8 °F - 27.7 °F 46% 30.24 in 10.0 mi SE 3.5 mph - N/A   Clear
9:14 PM 45.7 °F 42.7 °F 28.9 °F 52% 30.25 in 10.0 mi SE 5.8 mph - N/A   Clear
9:34 PM 44.8 °F - 29.1 °F 54% 30.26 in 10.0 mi Calm Calm - N/A   Clear
9:54 PM 44.8 °F - 27.7 °F 51% 30.26 in 10.0 mi Calm Calm - N/A   Clear
10:14 PM 44.6 °F - 28.2 °F 53% 30.26 in 10.0 mi Calm Calm - N/A   Clear
10:34 PM 43.7 °F - 28.8 °F 56% 30.26 in 10.0 mi Calm Calm - N/A   Clear
10:54 PM 43.5 °F 41.9 °F 26.4 °F 51% 30.26 in 10.0 mi NNW 3.5 mph - N/A   Clear
11:14 PM 41.2 °F - 27.1 °F 57% 30.26 in 10.0 mi Calm Calm - N/A   Clear
11:34 PM 41.2 °F - 26.8 °F 57% 30.26 in 10.0 mi Calm Calm - N/A   Clear
11:54 PM 40.8 °F - 26.8 °F 57% 30.26 in 10.0 mi Calm Calm - N/A   Clear